Overview Statistics Trail Chart Weather Telemetry Raw packets
 

This is the latest recevied weather packets stored in our database for station/object NO9B. If no packets are shown the sender has not sent any weather packets the latest 10 day(s).

<< 6 7 8 9 10 11 12 >>
Time Temp. Humidity Pressure Rain* Wind** Luminosity Snow
1788615001 23.33° C 94% 1016.9 hPa 0 mm - 45 W/m² -
1788614697 23.33° C 94% 1016.9 hPa 0 mm - 28 W/m² -
1788614391 23.33° C 94% 1017.1 hPa 0 mm - 29 W/m² -
1788614087 23.33° C 95% 1017.2 hPa 0 mm - 44 W/m² -
1788613782 22.78° C 95% 1016.9 hPa 0 mm - 37 W/m² -
1788613481 22.78° C 95% 1016.6 hPa 0 mm - 28 W/m² -
1788613181 22.78° C 95% 1016.7 hPa 0 mm - 20 W/m² -
1788612876 22.78° C 96% 1016.7 hPa 0 mm - 23 W/m² -
1788612572 22.78° C 96% 1016.6 hPa 0 mm - 23 W/m² -
1788612268 22.78° C 96% 1016.5 hPa 0 mm - 20 W/m² -
1788611968 22.78° C 96% 1016.3 hPa 0 mm - 19 W/m² -
1788611665 22.78° C 96% 1016.4 hPa 0 mm - 15 W/m² -
1788611360 22.78° C 96% 1016.4 hPa 0 mm - 18 W/m² -
1788611059 22.78° C 96% 1016.2 hPa 0 mm - 15 W/m² -
1788610755 22.78° C 97% 1015.9 hPa 0 mm - 15 W/m² -
1788610450 22.78° C 97% 1016 hPa 0 mm - 11 W/m² -
1788610150 22.22° C 97% 1016 hPa 0 mm - 11 W/m² -
1788609850 22.22° C 97% 1015.8 hPa 0 mm - 9 W/m² -
1788609545 22.22° C 97% 1016.1 hPa 0 mm - 8 W/m² -
1788609244 22.22° C 97% 1015.9 hPa 0 mm - 6 W/m² -
1788608939 22.22° C 97% 1015.9 hPa 0 mm - 3 W/m² -
1788608638 22.22° C 97% 1015.9 hPa 0 mm - 3 W/m² -
1788608338 22.22° C 97% 1015.6 hPa 0 mm - 2 W/m² -
1788608033 22.22° C 97% 1015.6 hPa 0 mm - 1 W/m² -
1788607728 22.22° C 97% 1015.7 hPa 0 mm - 1 W/m² -

* Rain latest hour (hover to see other rain measurements)
** Current wind speed in m/s (hover to see current wind gust speed)